Miscellaneous Local Product
Issued by NWS North Platte, NE

Home | Current Version | Previous Version | Text Only | Print | Product List | Glossary On
Versions: 1 2 3 4 5 6 7 8 9 10 11 12 13 14 15 16 17 18 19 20 21 22 23 24 25 26 27 28 29 30 31 32 33 34 35 36 37 38 39 40 41 42 43 44 45 46 47 48 49 50
779
AXUS43 KLBF 261910
MISLBF


WESTERN AND NORTH CENTRAL NEBRASKA HOURLY WEATHER ROUNDUP
NATIONAL WEATHER SERVICE NORTH PLATTE NE
200 PM CDT MON JUN 26 2017

NOTE: "FAIR" INDICATES FEW OR NO CLOUDS BELOW 12,000 FEET WITH NO
SIGNIFICANT WEATHER AND/OR OBSTRUCTIONS TO VISIBILITY.

NOTE: STATIONS NOT REPORTING VARIABLES SUCH AS SKY/WEATHER OR
PRESSURE ARE PROVIDED BY RAWS AND APRS NETWORKS AND ARE NOT UNDER
NATIONAL WEATHER SERVICE QUALITY CONTROL.

...OBSERVATIONS IN AND NEAR THE EASTERN PANHANDLE OF NEBRASKA...

CITY           SKY/WX    TMP DP  RH WIND       PRES   REMARKS
PINE RIDGE     SUNNY     76  40  27 VRB3      30.20F
GORDON         FAIR      74  38  27 E9G17     30.21F
CHADRON        SUNNY     77  37  23 S8        30.18F
ALLIANCE       SUNNY     77  37  23 SE8G17    30.20F
SIDNEY         SUNNY     82  52  35 VRB5      30.20F
CRESCENT LAKE    N/A     78  40  26 E8G17       N/A
$$

...OBSERVATIONS IN NORTHERN NEBRASKA AND FAR SOUTHERN SOUTH DAKOTA...

CITY           SKY/WX    TMP DP  RH WIND       PRES   REMARKS
WINNER         FAIR      77  41  27 NE13G18   30.20F
VALENTINE      SUNNY     77  36  22 NE13G23   30.21F
THEDFORD       SUNNY     76  40  27 E14G21    30.21F
AINSWORTH      SUNNY     73  42  32 NE17G28   30.21F
O`NEILL        SUNNY     71  44  36 E8G18     30.21F
ORD            SUNNY     77  41  27 N14G23    30.16F
BROKEN BOW     SUNNY     77  46  33 NE14G20   30.17F
VALENTINE NWR    N/A     72  43  34 NE9G16      N/A
HALSEY           N/A     76  40  27 NE8G15      N/A
BUTTE            N/A     69  42  38 NE12G23     N/A
CHAMBERS         N/A     75  46  35 E3          N/A
EWING            N/A     71  49  45 NE5         N/A
$$

...OBSERVATIONS IN SOUTHWEST NEBRASKA AND FAR NORTHEAST COLORADO...

CITY           SKY/WX    TMP DP  RH WIND       PRES   REMARKS
WRAY           FAIR      82  52  34 N3        30.18S
IMPERIAL       SUNNY     83  50  31 S7        30.15F
OGALLALA       SUNNY     81  52  36 NE7       30.17F
NORTH PLATTE   SUNNY     77  56  48 E13       30.17F
MCCOOK         SUNNY     82  58  43 VRB3      30.13F
LEXINGTON      CLOUDY    69  63  81 NE8       30.18F
STAPLETON        N/A     73  44  36 NE6G14      N/A
GOTHENBURG       N/A     67  58  72 E3          N/A
CALLAWAY         N/A     74  59  58 E8          N/A
$$

...OBSERVATIONS IN CENTRAL LINCOLN COUNTY AREA...

CITY           SKY/WX    TMP DP  RH WIND       PRES   REMARKS
N.P. AIRPORT   SUNNY     77  56  48 E13       30.17F
N.P. DOWNTOWN    N/A     76  55  48 E10         N/A
N.P. SOUTHEAST   N/A     76  55  47 NE3         N/A
N.P. HILLCREST   N/A     74  50  42 E15G24      N/A
$$

...SOME OBSERVATIONS FROM AROUND THE REGION...

CITY           SKY/WX    TMP DP  RH WIND       PRES   REMARKS
DENVER         MOSUNNY   83  39  21 VRB3      30.21F
LIMON          MOSUNNY   81  45  28 S10G17    30.22F
ASPEN          SUNNY     79  17  10 MISG      30.34F
LARAMIE        SUNNY     77  29  17 MISG      30.31F
CASPER         SUNNY     81  30  15 VRB3      30.18F
CHEYENNE       SUNNY     78  39  24 CALM      30.27F
SCOTTSBLUFF    SUNNY     79  42  26 SE7       30.18F
GRAND ISLAND   MOSUNNY   76  59  55 NE7       30.15F
OMAHA          MOSUNNY   76  56  49 NE9       30.15F
SIOUX FALLS    MOSUNNY   69  45  41 N13G18    30.21F
PIERRE         SUNNY     71  41  33 MISG      30.19F
RAPID CITY     SUNNY     76  38  25 SE13G22   30.18F
BISMARCK       SUNNY     73  44  35 SE8       30.19F
KANSAS CITY    CLOUDY    61  55  81 SE16      30.20F
HILL CITY      SUNNY     81  64  56 MISG      30.14F
WICHITA        MOSUNNY   83  59  44 SW9       30.11F
DODGE CITY     SUNNY     79  62  56 CALM      30.16F
OKLAHOMA CITY  MOSUNNY   84  58  40 SE10      30.13F
DALLAS         PTSUNNY   84  70  62 E5        30.10F
AMARILLO         N/A     82  54  37 SW6       30.21F
$$




USA.gov is the U.S. government's official web portal to all federal, state and local government web resources and services.